When you browse on this site, cookies collect data to enhance your experience and personalize the content and advertising you see.
Visit our Privacy Policy to learn more. By continuing to use the site, you agree to this use of cookies and data.
  • In France
  • List of Countries
  • For 7 days
  • Water Temperature
  • Satellite Maps
  • Weather Map
  • Weather Widgets
  • user-avatar
    Login

    Hourly Weather Chitole

    Today, 25 May, Saturday

    Time Temperature Precipitation Wind Pressure Humidity
    00:00 +18°C° 0 mm 3 mps 674 mmHg 41%
    01:00 +17°C° 0 mm 3 mps 673 mmHg 45%
    02:00 +16°C° 0 mm 2 mps 673 mmHg 49%
    03:00 +15°C° 0 mm 2 mps 673 mmHg 53%
    04:00 +15°C° 0 mm 2 mps 673 mmHg 57%
    05:00 +15°C° 0 mm 2 mps 673 mmHg 57%
    06:00 +16°C° 0 mm 3 mps 674 mmHg 57%
    07:00 +17°C° 0 mm 3 mps 675 mmHg 56%
    08:00 +20°C° 0 mm 4 mps 675 mmHg 48%
    09:00 +23°C° 0 mm 4 mps 676 mmHg 41%
    10:00 +27°C° 0 mm 4 mps 676 mmHg 33%
    11:00 +28°C° 0 mm 4 mps 676 mmHg 29%
    12:00 +29°C° 0 mm 4 mps 675 mmHg 25%
    13:00 +30°C° 0 mm 4 mps 674 mmHg 21%
    14:00 +30°C° 0 mm 4 mps 674 mmHg 22%
    15:00 +29°C° 0 mm 4 mps 673 mmHg 22%
    16:00 +29°C° 0 mm 3 mps 673 mmHg 22%
    17:00 +26°C° 0 mm 3 mps 673 mmHg 27%
    18:00 +24°C° 0 mm 3 mps 673 mmHg 31%
    19:00 +20°C° 0 mm 3 mps 673 mmHg 35%
    20:00 +20°C° 0 mm 3 mps 673 mmHg 38%
    21:00 +19°C° 0 mm 3 mps 673 mmHg 40%
    22:00 +18°C° 0 mm 3 mps 673 mmHg 43%
    23:00 +18°C° 0 mm 3 mps 673 mmHg 46%

    Tomorrow, 26 May, Sunday

    Time Temperature Precipitation Wind Pressure Humidity
    00:00 +17°C° 0 mm 2 mps 673 mmHg 50%
    01:00 +16°C° 0 mm 2 mps 673 mmHg 53%
    02:00 +16°C° 0 mm 2 mps 673 mmHg 57%
    03:00 +16°C° 0 mm 2 mps 673 mmHg 61%
    04:00 +14°C° 0 mm 3 mps 673 mmHg 66%
    05:00 +16°C° 0 mm 3 mps 673 mmHg 67%
    06:00 +17°C° 0 mm 4 mps 673 mmHg 68%
    07:00 +17°C° 0 mm 4 mps 674 mmHg 70%
    08:00 +20°C° 0 mm 4 mps 674 mmHg 59%
    09:00 +23°C° 0 mm 4 mps 675 mmHg 49%
    10:00 +27°C° 0 mm 4 mps 675 mmHg 38%
    11:00 +28°C° 0 mm 4 mps 675 mmHg 34%
    12:00 +29°C° 0 mm 3 mps 674 mmHg 30%
    13:00 +30°C° 0 mm 3 mps 674 mmHg 26%
    14:00 +29°C° 0 mm 3 mps 673 mmHg 25%
    15:00 +29°C° 0 mm 2 mps 673 mmHg 25%
    16:00 +29°C° 0 mm 2 mps 672 mmHg 24%
    17:00 +27°C° 0 mm 2 mps 672 mmHg 28%
    18:00 +24°C° 0 mm 2 mps 672 mmHg 32%
    19:00 +21°C° 0 mm 2 mps 672 mmHg 35%
    20:00 +20°C° 0 mm 2 mps 672 mmHg 37%
    21:00 +19°C° 0 mm 2 mps 672 mmHg 39%
    22:00 +19°C° 0 mm 2 mps 673 mmHg 41%
    23:00 +18°C° 0 mm 2 mps 672 mmHg 45%

    Day after tomorrow, 27 May, Monday

    Time Temperature Precipitation Wind Pressure Humidity
    00:00 +18°C° 0 mm 2 mps 672 mmHg 49%
    01:00 +17°C° 0 mm 2 mps 672 mmHg 52%
    02:00 +17°C° 0 mm 2 mps 672 mmHg 58%
    03:00 +16°C° 0 mm 2 mps 672 mmHg 63%
    04:00 +16°C° 0 mm 2 mps 672 mmHg 68%
    05:00 +16°C° 0 mm 2 mps 672 mmHg 67%
    06:00 +17°C° 0 mm 3 mps 673 mmHg 67%
    07:00 +17°C° 0 mm 3 mps 673 mmHg 66%
    08:00 +20°C° 0 mm 3 mps 674 mmHg 56%
    09:00 +25°C° 0 mm 4 mps 674 mmHg 46%
    10:00 +28°C° 0 mm 4 mps 675 mmHg 36%
    11:00 +29°C° 0 mm 3 mps 674 mmHg 32%
    12:00 +30°C° 0 mm 3 mps 674 mmHg 28%
    13:00 +31°C° 0 mm 2 mps 673 mmHg 24%
    14:00 +30°C° 0 mm 2 mps 672 mmHg 24%
    15:00 +30°C° 0 mm 1 mps 672 mmHg 24%
    16:00 +30°C° 0 mm 1 mps 671 mmHg 24%
    17:00 +27°C° 0 mm 1 mps 671 mmHg 28%
    18:00 +25°C° 0 mm 2 mps 671 mmHg 32%
    19:00 +21°C° 0 mm 2 mps 671 mmHg 36%
    20:00 +21°C° 0 mm 2 mps 672 mmHg 37%
    21:00 +20°C° 0 mm 2 mps 672 mmHg 39%
    22:00 +19°C° 0 mm 2 mps 672 mmHg 41%
    23:00 +19°C° 0 mm 2 mps 672 mmHg 43%

    28 May, Tuesday

    Time Temperature Precipitation Wind Pressure Humidity
    00:00 +18°C° 0 mm 2 mps 672 mmHg 45%
    01:00 +17°C° 0 mm 2 mps 671 mmHg 47%
    02:00 +17°C° 0 mm 2 mps 671 mmHg 49%
    03:00 +17°C° 0 mm 2 mps 671 mmHg 52%
    04:00 +16°C° 0 mm 2 mps 671 mmHg 54%
    05:00 +17°C° 0 mm 2 mps 672 mmHg 56%
    06:00 +17°C° 0 mm 2 mps 672 mmHg 58%
    07:00 +18°C° 0 mm 3 mps 673 mmHg 61%
    08:00 +21°C° 0 mm 3 mps 673 mmHg 53%
    09:00 +25°C° 0 mm 3 mps 674 mmHg 45%
    10:00 +28°C° 0 mm 3 mps 674 mmHg 37%
    11:00 +29°C° 0 mm 3 mps 674 mmHg 32%
    12:00 +31°C° 0 mm 2 mps 673 mmHg 27%
    13:00 +33°C° 0 mm 1 mps 673 mmHg 23%
    14:00 +32°C° 0 mm 1 mps 672 mmHg 24%
    15:00 +31°C° 0 mm 1 mps 672 mmHg 25%
    16:00 +29°C° 0 mm 1 mps 671 mmHg 27%
    17:00 +28°C° 0 mm 1 mps 672 mmHg 29%
    18:00 +26°C° 0 mm 2 mps 672 mmHg 32%
    19:00 +25°C° 0 mm 2 mps 672 mmHg 34%
    20:00 +24°C° 0 mm 2 mps 672 mmHg 36%
    21:00 +24°C° 0 mm 2 mps 672 mmHg 37%
    22:00 +23°C° 0 mm 2 mps 672 mmHg 38%
    23:00 +21°C° 0 mm 2 mps 672 mmHg 40%

    29 May, Wednesday

    Time Temperature Precipitation Wind Pressure Humidity
    00:00 +20°C° 0 mm 2 mps 672 mmHg 43%
    01:00 +19°C° 0 mm 2 mps 671 mmHg 45%
    02:00 +18°C° 0 mm 2 mps 671 mmHg 48%
    03:00 +17°C° 0 mm 2 mps 671 mmHg 50%
    04:00 +17°C° 0 mm 2 mps 671 mmHg 53%
    05:00 +17°C° 0 mm 2 mps 672 mmHg 52%
    06:00 +18°C° 0 mm 3 mps 672 mmHg 52%
    07:00 +19°C° 0 mm 3 mps 673 mmHg 51%
    08:00 +22°C° 0 mm 3 mps 674 mmHg 44%
    09:00 +26°C° 0 mm 3 mps 674 mmHg 37%
    10:00 +29°C° 0 mm 4 mps 675 mmHg 30%
    11:00 +30°C° 0 mm 3 mps 674 mmHg 27%
    12:00 +32°C° 0 mm 2 mps 673 mmHg 24%
    13:00 +33°C° 0 mm 1 mps 673 mmHg 20%
    14:00 +32°C° 0 mm 1 mps 672 mmHg 21%
    15:00 +32°C° 0 mm 1 mps 672 mmHg 21%
    16:00 +31°C° 0 mm 2 mps 671 mmHg 21%
    17:00 +28°C° 0 mm 2 mps 671 mmHg 25%
    18:00 +26°C° 0 mm 2 mps 671 mmHg 28%
    19:00 +24°C° 0 mm 2 mps 672 mmHg 32%
    20:00 +23°C° 0 mm 2 mps 672 mmHg 33%
    21:00 +21°C° 0 mm 2 mps 672 mmHg 35%
    22:00 +20°C° 0 mm 2 mps 672 mmHg 37%
    23:00 +20°C° 0 mm 2 mps 672 mmHg 38%

    30 May, Thursday

    Time Temperature Precipitation Wind Pressure Humidity
    00:00 +19°C° 0 mm 2 mps 671 mmHg 40%
    01:00 +19°C° 0 mm 2 mps 671 mmHg 41%
    02:00 +18°C° 0 mm 2 mps 671 mmHg 43%
    03:00 +17°C° 0 mm 2 mps 671 mmHg 45%
    04:00 +17°C° 0 mm 2 mps 671 mmHg 47%
    05:00 +17°C° 0 mm 2 mps 672 mmHg 47%
    06:00 +18°C° 0 mm 3 mps 672 mmHg 48%
    07:00 +18°C° 0 mm 3 mps 673 mmHg 48%
    08:00 +22°C° 0 mm 3 mps 673 mmHg 42%
    09:00 +26°C° 0 mm 4 mps 674 mmHg 36%
    10:00 +29°C° 0 mm 4 mps 674 mmHg 31%
    11:00 +30°C° 0 mm 3 mps 674 mmHg 27%
    12:00 +31°C° 0 mm 3 mps 673 mmHg 24%
    13:00 +32°C° 0 mm 2 mps 672 mmHg 21%
    14:00 +32°C° 0 mm 2 mps 672 mmHg 20%
    15:00 +31°C° 0 mm 2 mps 672 mmHg 20%
    16:00 +31°C° 0 mm 2 mps 672 mmHg 20%
    17:00 +29°C° 0 mm 2 mps 672 mmHg 23%
    18:00 +26°C° 0 mm 2 mps 672 mmHg 27%
    19:00 +24°C° 0 mm 2 mps 672 mmHg 30%
    20:00 +23°C° 0 mm 2 mps 672 mmHg 31%
    21:00 +22°C° 0 mm 1 mps 672 mmHg 32%
    22:00 +22°C° 0 mm 1 mps 672 mmHg 33%
    23:00 +20°C° 0 mm 2 mps 672 mmHg 34%
    Show more